| time (UTC) | temp F | wind direction | speed MPH | gust MPH | rain 1hr in | rain 24hr in | rain mn in | humidity % | barometer mb |
| 20260903232919 | 81 | 172 | 5.0 | 6.0 | 0.00 | 0.10 | 0.10 | 81 | 1005.7 |
| 20260903232414 | 81 | 184 | 2.0 | 8.0 | 0.00 | 0.10 | 0.10 | 81 | 1005.5 |
| 20260903231909 | 81 | 180 | 4.0 | 9.0 | 0.00 | 0.10 | 0.10 | 80 | 1005.8 |
| 20260903231404 | 81 | 156 | 4.0 | 5.0 | 0.00 | 0.10 | 0.10 | 80 | 1005.7 |
| 20260903230859 | 82 | 197 | 7.0 | 8.0 | 0.00 | 0.10 | 0.10 | 79 | 1005.5 |
| 20260903230354 | 82 | 172 | 3.0 | 9.0 | 0.00 | 0.10 | 0.10 | 78 | 1005.5 |
| 20260903225850 | 83 | 163 | 4.0 | 8.0 | 0.00 | 0.10 | 0.10 | 78 | 1005.7 |
| 20260903225346 | 82 | 207 | 5.0 | 8.0 | 0.00 | 0.10 | 0.10 | 78 | 1005.7 |
| 20260903224842 | 82 | 176 | 3.0 | 7.0 | 0.00 | 0.10 | 0.10 | 78 | 1005.7 |
| 20260903224337 | 84 | 184 | 3.0 | 7.0 | 0.00 | 0.10 | 0.10 | 76 | 1005.6 |
| 20260903223833 | 83 | 178 | 2.0 | 6.0 | 0.00 | 0.10 | 0.10 | 77 | 1005.4 |
| 20260903223332 | 82 | 113 | 3.0 | 8.0 | 0.00 | 0.10 | 0.10 | 77 | 1005.9 |
| 20260903222827 | 83 | 191 | 5.0 | 7.0 | 0.00 | 0.10 | 0.10 | 75 | 1005.8 |
| 20260903222326 | 83 | 37 | 3.0 | 7.0 | 0.00 | 0.10 | 0.10 | 75 | 1005.7 |
| 20260903221820 | 83 | 169 | 3.0 | 7.0 | 0.00 | 0.10 | 0.10 | 75 | 1005.9 |
| 20260903221320 | 83 | 192 | 4.0 | 6.0 | 0.00 | 0.10 | 0.10 | 76 | 1005.8 |
| 20260903220818 | 83 | 189 | 6.0 | 14.0 | 0.00 | 0.10 | 0.10 | 74 | 1005.9 |
| 20260903220312 | 84 | 186 | 5.0 | 8.0 | 0.00 | 0.10 | 0.10 | 72 | 1005.8 |
| 20260903215805 | 83 | 211 | 5.0 | 10.0 | 0.00 | 0.10 | 0.10 | 74 | 1005.8 |
| 20260903215305 | 84 | 201 | 5.0 | 8.0 | 0.00 | 0.10 | 0.10 | 73 | 1005.6 |
| 20260903214759 | 84 | 109 | 6.0 | 11.0 | 0.00 | 0.10 | 0.10 | 72 | 1005.9 |
| 20260903214256 | 84 | 189 | 4.0 | 9.0 | 0.00 | 0.10 | 0.10 | 72 | 1005.9 |
| 20260903213750 | 84 | 189 | 4.0 | 10.0 | 0.00 | 0.10 | 0.10 | 71 | 1005.8 |
| 20260903213246 | 84 | 195 | 5.0 | 10.0 | 0.00 | 0.10 | 0.10 | 71 | 1005.9 |
| 20260903212741 | 84 | 193 | 9.0 | 11.0 | 0.00 | 0.10 | 0.10 | 71 | 1006.1 |
| 20260903212238 | 84 | 175 | 4.0 | 9.0 | 0.00 | 0.10 | 0.10 | 70 | 1006.2 |
| 20260903211731 | 85 | 214 | 6.0 | 13.0 | 0.00 | 0.10 | 0.10 | 70 | 1006.0 |
| 20260903211227 | 84 | 218 | 3.0 | 11.0 | 0.00 | 0.10 | 0.10 | 71 | 1005.9 |
| 20260903210723 | 84 | 188 | 3.0 | 10.0 | 0.00 | 0.10 | 0.10 | 72 | 1006.0 |
| 20260903210219 | 84 | 163 | 4.0 | 8.0 | 0.00 | 0.10 | 0.10 | 73 | 1005.8 |
| 20260903205718 | 84 | 162 | 3.0 | 9.0 | 0.00 | 0.10 | 0.10 | 72 | 1005.7 |
| 20260903205217 | 84 | 206 | 7.0 | 9.0 | 0.00 | 0.10 | 0.10 | 74 | 1006.1 |
| 20260903204713 | 84 | 181 | 5.0 | 12.0 | 0.00 | 0.10 | 0.10 | 73 | 1006.2 |
| 20260903204210 | 84 | 199 | 7.0 | 13.0 | 0.00 | 0.10 | 0.10 | 74 | 1005.9 |
| 20260903203704 | 83 | 192 | 9.0 | 11.0 | 0.00 | 0.10 | 0.10 | 74 | 1006.1 |
| 20260903203200 | 83 | 197 | 7.0 | 11.0 | 0.00 | 0.10 | 0.10 | 75 | 1006.3 |
| 20260903202654 | 83 | 176 | 3.0 | 10.0 | 0.00 | 0.10 | 0.10 | 74 | 1006.3 |
| 20260903202150 | 83 | 216 | 6.0 | 15.0 | 0.00 | 0.10 | 0.10 | 73 | 1006.3 |
| 20260903201643 | 83 | 200 | 9.0 | 10.0 | 0.00 | 0.10 | 0.10 | 74 | 1006.1 |
| 20260903201143 | 83 | 189 | 5.0 | 7.0 | 0.00 | 0.10 | 0.10 | 75 | 1006.1 |
| 20260903200638 | 82 | 193 | 4.0 | 6.0 | 0.00 | 0.10 | 0.10 | 76 | 1006.2 |
| 20260903200133 | 81 | 155 | 4.0 | 7.0 | 0.00 | 0.10 | 0.10 | 77 | 1006.4 |
| 20260903195624 | 81 | 187 | 2.0 | 6.0 | 0.00 | 0.10 | 0.10 | 78 | 1006.2 |
| 20260903195120 | 81 | 167 | 3.0 | 7.0 | 0.00 | 0.10 | 0.10 | 76 | 1006.5 |
| 20260903194614 | 81 | 152 | 3.0 | 8.0 | 0.00 | 0.10 | 0.10 | 77 | 1006.5 |
| 20260903194114 | 81 | 170 | 6.0 | 10.0 | 0.00 | 0.10 | 0.10 | 76 | 1006.4 |
| 20260903193611 | 82 | 186 | 4.0 | 7.0 | 0.00 | 0.10 | 0.10 | 76 | 1006.5 |
| 20260903193106 | 82 | 155 | 3.0 | 12.0 | 0.00 | 0.10 | 0.10 | 75 | 1006.9 |
| 20260903192603 | 80 | 192 | 2.0 | 9.0 | 0.00 | 0.10 | 0.10 | 77 | 1006.8 |
| 20260903192103 | 80 | 170 | 3.0 | 7.0 | 0.00 | 0.10 | 0.10 | 76 | 1006.7 |
| 20260903191559 | 80 | 199 | 5.0 | 9.0 | 0.00 | 0.10 | 0.10 | 77 | 1007.2 |
| 20260903191054 | 80 | 153 | 5.0 | 9.0 | 0.00 | 0.10 | 0.10 | 75 | 1007.2 |
| 20260903190553 | 80 | 146 | 3.0 | 6.0 | 0.00 | 0.10 | 0.10 | 74 | 1007.3 |
| 20260903190053 | 81 | 180 | 3.0 | 8.0 | 0.00 | 0.10 | 0.10 | 74 | 1007.1 |
| 20260903185548 | 81 | 204 | 3.0 | 12.0 | 0.00 | 0.10 | 0.10 | 73 | 1007.2 |
| 20260903185044 | 82 | 204 | 4.0 | 7.0 | 0.00 | 0.10 | 0.10 | 71 | 1007.5 |
| 20260903184535 | 82 | 172 | 3.0 | 8.0 | 0.00 | 0.10 | 0.10 | 72 | 1007.3 |
| 20260903184035 | 82 | 163 | 4.0 | 8.0 | 0.00 | 0.10 | 0.10 | 71 | 1007.4 |
| 20260903183528 | 82 | 130 | 2.0 | 7.0 | 0.00 | 0.10 | 0.10 | 71 | 1007.5 |
| 20260903183023 | 81 | 147 | 1.0 | 4.0 | 0.00 | 0.10 | 0.10 | 74 | 1007.4 |
| 20260903182522 | 80 | 188 | 3.0 | 5.0 | 0.00 | 0.10 | 0.10 | 73 | 1007.7 |
| 20260903182019 | 80 | 215 | 6.0 | 12.0 | 0.00 | 0.10 | 0.10 | 72 | 1007.8 |
| 20260903181512 | 80 | 201 | 4.0 | 11.0 | 0.00 | 0.10 | 0.10 | 72 | 1007.8 |
| 20260903181012 | 80 | 220 | 5.0 | 8.0 | 0.00 | 0.10 | 0.10 | 73 | 1007.4 |
| 20260903180507 | 81 | 168 | 2.0 | 3.0 | 0.00 | 0.10 | 0.10 | 74 | 1007.5 |
| 20260903180006 | 81 | 186 | 3.0 | 5.0 | 0.00 | 0.10 | 0.10 | 74 | 1007.2 |
| 20260903175505 | 82 | 148 | 3.0 | 4.0 | 0.00 | 0.10 | 0.10 | 71 | 1007.1 |
| 20260903175005 | 82 | 103 | 2.0 | 6.0 | 0.00 | 0.10 | 0.10 | 74 | 1007.1 |
| 20260903174500 | 82 | 190 | 5.0 | 8.0 | 0.00 | 0.10 | 0.10 | 74 | 1006.9 |
| 20260903174000 | 81 | 189 | 3.0 | 4.0 | 0.00 | 0.10 | 0.10 | 75 | 1007.1 |
| 20260903173455 | 80 | 181 | 2.0 | 10.0 | 0.00 | 0.10 | 0.10 | 77 | 1007.0 |
| 20260903172950 | 81 | 189 | 2.0 | 7.0 | 0.00 | 0.10 | 0.10 | 75 | 1007.1 |
| 20260903172445 | 81 | 211 | 2.0 | 5.0 | 0.00 | 0.10 | 0.10 | 74 | 1007.1 |
| 20260903171940 | 79 | 167 | 3.0 | 6.0 | 0.00 | 0.10 | 0.10 | 76 | 1007.2 |
| 20260903171431 | 80 | 179 | 2.0 | 6.0 | 0.00 | 0.10 | 0.10 | 75 | 1007.1 |
| 20260903170931 | 80 | 70 | 1.0 | 8.0 | 0.00 | 0.10 | 0.10 | 75 | 1007.4 |
| 20260903170425 | 79 | 208 | 3.0 | 11.0 | 0.00 | 0.10 | 0.10 | 78 | 1007.6 |
| 20260903165924 | 80 | 156 | 2.0 | 7.0 | 0.00 | 0.10 | 0.10 | 75 | 1007.3 |
| 20260903165418 | 80 | 158 | 3.0 | 5.0 | 0.00 | 0.10 | 0.10 | 77 | 1007.2 |
| 20260903164913 | 80 | 201 | 3.0 | 9.0 | 0.00 | 0.10 | 0.10 | 75 | 1007.0 |
| 20260903164408 | 80 | 200 | 5.0 | 7.0 | 0.00 | 0.10 | 0.10 | 74 | 1006.9 |
| 20260903163907 | 80 | 187 | 4.0 | 8.0 | 0.00 | 0.10 | 0.10 | 77 | 1007.0 |
| 20260903163404 | 79 | 192 | 3.0 | 7.0 | 0.00 | 0.10 | 0.10 | 79 | 1006.8 |
| 20260903162859 | 79 | 189 | 3.0 | 7.0 | 0.00 | 0.10 | 0.10 | 79 | 1006.7 |
| 20260903162356 | 78 | 193 | 5.0 | 13.0 | 0.00 | 0.10 | 0.10 | 78 | 1007.0 |
| 20260903161851 | 78 | 182 | 3.0 | 9.0 | 0.00 | 0.10 | 0.10 | 79 | 1007.0 |
| 20260903161346 | 79 | 196 | 5.0 | 8.0 | 0.00 | 0.10 | 0.10 | 76 | 1006.9 |
| 20260903160842 | 78 | 141 | 3.0 | 7.0 | 0.00 | 0.10 | 0.10 | 79 | 1006.9 |
| 20260903160341 | 77 | 194 | 4.0 | 7.0 | 0.00 | 0.10 | 0.10 | 81 | 1006.8 |
| 20260903155839 | 77 | 194 | 4.0 | 8.0 | 0.00 | 0.10 | 0.10 | 81 | 1006.8 |
| 20260903155335 | 76 | 200 | 5.0 | 7.0 | 0.00 | 0.10 | 0.10 | 84 | 1007.0 |
| 20260903154830 | 74 | 205 | 4.0 | 9.0 | 0.00 | 0.10 | 0.10 | 86 | 1007.0 |
| 20260903154327 | 74 | 207 | 4.0 | 9.0 | 0.00 | 0.10 | 0.10 | 86 | 1007.0 |
| 20260903153821 | 74 | 211 | 5.0 | 6.0 | 0.00 | 0.10 | 0.10 | 87 | 1007.4 |
| 20260903153317 | 74 | 206 | 4.0 | 7.0 | 0.00 | 0.10 | 0.10 | 86 | 1007.5 |
| 20260903152814 | 74 | 202 | 3.0 | 6.0 | 0.00 | 0.10 | 0.10 | 86 | 1007.3 |
| 20260903152310 | 73 | 222 | 3.0 | 5.0 | 0.00 | 0.10 | 0.10 | 87 | 1007.1 |
| 20260903151809 | 72 | 121 | 5.0 | 7.0 | 0.00 | 0.10 | 0.10 | 89 | 1006.9 |
| 20260903151305 | 71 | 198 | 3.0 | 5.0 | 0.00 | 0.10 | 0.10 | 91 | 1007.1 |
| 20260903150759 | 71 | 181 | 3.0 | 5.0 | 0.00 | 0.10 | 0.10 | 92 | 1007.1 |
| 20260903150254 | 71 | 197 | 4.0 | 5.0 | 0.00 | 0.10 | 0.10 | 92 | 1007.2 |
| 20260903145749 | 71 | 205 | 4.0 | 7.0 | 0.00 | 0.10 | 0.10 | 92 | 1007.6 |
| 20260903145244 | 71 | 189 | 3.0 | 5.0 | 0.00 | 0.10 | 0.10 | 93 | 1007.5 |
| 20260903144743 | 71 | 211 | 5.0 | 8.0 | 0.00 | 0.10 | 0.10 | 92 | 1007.9 |
| 20260903144239 | 71 | 213 | 5.0 | 6.0 | 0.00 | 0.10 | 0.10 | 92 | 1007.2 |
| 20260903143735 | 71 | 209 | 4.0 | 7.0 | 0.00 | 0.10 | 0.10 | 92 | 1007.1 |
| 20260903143231 | 71 | 177 | 2.0 | 4.0 | 0.00 | 0.10 | 0.10 | 91 | 1007.0 |
| 20260903142726 | 72 | 210 | 3.0 | 5.0 | 0.00 | 0.10 | 0.10 | 91 | 1007.0 |
| 20260903142222 | 71 | 180 | 2.0 | 7.0 | 0.00 | 0.10 | 0.10 | 92 | 1007.1 |
| 20260903141717 | 72 | 206 | 2.0 | 5.0 | 0.00 | 0.10 | 0.10 | 91 | 1006.6 |
| 20260903141213 | 72 | 184 | 2.0 | 6.0 | 0.00 | 0.10 | 0.10 | 91 | 1007.1 |
| 20260903140708 | 71 | 147 | 2.0 | 4.0 | 0.00 | 0.10 | 0.10 | 91 | 1007.0 |
| 20260903140203 | 71 | 220 | 3.0 | 4.0 | 0.00 | 0.10 | 0.10 | 92 | 1007.1 |
| 20260903135659 | 71 | 164 | 2.0 | 4.0 | 0.00 | 0.10 | 0.10 | 93 | 1007.3 |
| 20260903135154 | 71 | 240 | 0.0 | 3.0 | 0.00 | 0.10 | 0.10 | 94 | 1007.8 |
| 20260903134653 | 71 | 175 | 1.0 | 2.0 | 0.00 | 0.10 | 0.10 | 93 | 1008.0 |
| 20260903134149 | 71 | 212 | 0.0 | 3.0 | 0.02 | 0.10 | 0.10 | 92 | 1008.3 |
| 20260903133646 | 71 | 222 | 2.0 | 4.0 | 0.05 | 0.10 | 0.10 | 92 | 1008.3 |
| 20260903133142 | 71 | 217 | 1.0 | 5.0 | 0.02 | 0.09 | 0.09 | 91 | 1008.3 |
| 20260903132636 | 71 | 241 | 3.0 | 4.0 | 0.00 | 0.09 | 0.09 | 91 | 1008.5 |
| 20260903132131 | 71 | 272 | 2.0 | 4.0 | 0.00 | 0.09 | 0.09 | 91 | 1008.3 |
| 20260903131626 | 71 | 223 | 0.0 | 3.0 | 0.00 | 0.09 | 0.09 | 91 | 1007.6 |
| 20260903131125 | 72 | 211 | 0.0 | 4.0 | 0.00 | 0.09 | 0.09 | 90 | 1007.7 |
| 20260903130620 | 72 | 235 | 2.0 | 3.0 | 0.00 | 0.09 | 0.09 | 89 | 1008.1 |
| 20260903130114 | 72 | 269 | 2.0 | 3.0 | 0.00 | 0.09 | 0.09 | 89 | 1008.2 |
| 20260903125613 | 72 | 226 | 2.0 | 4.0 | 0.00 | 0.09 | 0.09 | 88 | 1008.3 |
| 20260903125108 | 72 | 214 | 2.0 | 4.0 | 0.00 | 0.09 | 0.09 | 88 | 1008.2 |
| 20260903124608 | 72 | 246 | 3.0 | 6.0 | 0.00 | 0.09 | 0.09 | 88 | 1008.8 |
| 20260903124107 | 72 | 255 | 2.0 | 5.0 | 0.00 | 0.09 | 0.09 | 88 | 1008.5 |
| 20260903123602 | 71 | 262 | 2.0 | 5.0 | 0.00 | 0.09 | 0.09 | 88 | 1008.6 |
| 20260903123100 | 70 | 246 | 3.0 | 7.0 | 0.00 | 0.09 | 0.09 | 92 | 1008.6 |
| 20260903122555 | 71 | 261 | 2.0 | 3.0 | 0.00 | 0.09 | 0.09 | 93 | 1008.3 |
| 20260903122055 | 71 | 247 | 0.0 | 2.0 | 0.00 | 0.09 | 0.09 | 91 | 1008.1 |
| 20260903121549 | 71 | 280 | 1.0 | 5.0 | 0.02 | 0.09 | 0.09 | 90 | 1008.5 |
| 20260903121045 | 71 | 246 | 2.0 | 6.0 | 0.02 | 0.09 | 0.09 | 90 | 1008.2 |
| 20260903120544 | 71 | 222 | 4.0 | 5.0 | 0.00 | 0.08 | 0.08 | 91 | 1008.1 |
| 20260903120038 | 70 | 217 | 4.0 | 9.0 | 0.07 | 0.08 | 0.08 | 92 | 1007.5 |
| 20260903115536 | 70 | 223 | 4.0 | 5.0 | 0.07 | 0.08 | 0.08 | 94 | 1007.8 |
| 20260903115031 | 71 | 210 | 5.0 | 9.0 | 0.05 | 0.07 | 0.07 | 93 | 1007.6 |
| 20260903114526 | 71 | 193 | 7.0 | 10.0 | 0.07 | 0.07 | 0.07 | 92 | 1007.9 |
| 20260903114022 | 71 | 213 | 3.0 | 7.0 | 0.07 | 0.06 | 0.06 | 92 | 1007.7 |
| 20260903113518 | 71 | 212 | 6.0 | 9.0 | 0.05 | 0.06 | 0.06 | 92 | 1007.9 |
| 20260903113014 | 71 | 246 | 5.0 | 9.0 | 0.02 | 0.05 | 0.05 | 92 | 1007.8 |
| 20260903112509 | 71 | 207 | 2.0 | 8.0 | 0.02 | 0.05 | 0.05 | 93 | 1007.8 |
| 20260903112009 | 71 | 284 | 4.0 | 10.0 | 0.07 | 0.05 | 0.05 | 93 | 1007.5 |
| 20260903111503 | 71 | 216 | 2.0 | 3.0 | 0.09 | 0.04 | 0.04 | 93 | 1007.6 |
| 20260903110959 | 71 | 283 | 0.0 | 3.0 | 0.09 | 0.04 | 0.04 | 92 | 1007.9 |
| 20260903110454 | 71 | 206 | 3.0 | 4.0 | 0.05 | 0.02 | 0.02 | 93 | 1008.1 |
| 20260903105948 | 72 | 231 | 1.0 | 3.0 | 0.02 | 0.02 | 0.02 | 94 | 1008.2 |
| 20260903105439 | 72 | 250 | 3.0 | 5.0 | 0.05 | 0.01 | 0.01 | 93 | 1008.5 |
| 20260903104938 | 73 | 294 | 2.0 | 8.0 | 0.07 | 0.01 | 0.01 | 91 | 1008.0 |
| 20260903104438 | 74 | 271 | 3.0 | 7.0 | 0.00 | 0.00 | 0.00 | 88 | 1007.8 |
| 20260903103935 | 74 | 216 | 3.0 | 9.0 | 0.00 | 0.00 | 0.00 | 89 | 1007.7 |
| 20260903103430 | 74 | 304 | 2.0 | 12.0 | 0.00 | 0.00 | 0.00 | 90 | 1007.6 |
| 20260903102926 | 73 | 235 | 4.0 | 13.0 | 0.00 | 0.00 | 0.00 | 91 | 1007.4 |
| 20260903102421 | 74 | 25 | 2.0 | 10.0 | 0.00 | 0.00 | 0.00 | 90 | 1007.1 |
| 20260903101920 | 74 | 227 | 2.0 | 13.0 | 0.00 | 0.00 | 0.00 | 90 | 1007.5 |
| 20260903101415 | 73 | 249 | 3.0 | 9.0 | 0.00 | 0.00 | 0.00 | 92 | 1007.7 |
| 20260903100910 | 73 | 245 | 0.0 | 4.0 | 0.00 | 0.00 | 0.00 | 94 | 1007.8 |
| 20260903100406 | 72 | 211 | 0.0 | 5.0 | 0.00 | 0.00 | 0.00 | 95 | 1007.9 |
| 20260903095902 | 72 | 221 | 4.0 | 5.0 | 0.00 | 0.00 | 0.00 | 96 | 1007.3 |
| 20260903095356 | 72 | 176 | 2.0 | 4.0 | 0.00 | 0.00 | 0.00 | 96 | 1007.1 |
| 20260903094851 | 72 | 218 | 2.0 | 5.0 | 0.00 | 0.00 | 0.00 | 96 | 1007.0 |
| 20260903094346 | 71 | 205 | 3.0 | 3.0 | 0.00 | 0.00 | 0.00 | 96 | 1006.7 |
| 20260903093842 | 71 | 200 | 2.0 | 4.0 | 0.00 | 0.00 | 0.00 | 96 | 1006.8 |
| 20260903093337 | 71 | 227 | 2.0 | 5.0 | 0.00 | 0.00 | 0.00 | 96 | 1007.0 |
| 20260903092832 | 71 | 204 | 3.0 | 7.0 | 0.00 | 0.00 | 0.00 | 96 | 1006.7 |
| 20260903092326 | 71 | 229 | 3.0 | 5.0 | 0.00 | 0.00 | 0.00 | 96 | 1006.6 |
| 20260903091825 | 71 | 184 | 2.0 | 2.0 | 0.00 | 0.00 | 0.00 | 96 | 1006.5 |
| 20260903091319 | 71 | 199 | 2.0 | 3.0 | 0.00 | 0.00 | 0.00 | 96 | 1006.6 |
| 20260903090815 | 71 | 189 | 0.0 | 3.0 | 0.00 | 0.00 | 0.00 | 96 | 1006.7 |
| 20260903090315 | 71 | 174 | 1.0 | 3.0 | 0.00 | 0.00 | 0.00 | 96 | 1006.8 |
| 20260903085813 | 71 | 136 | 2.0 | 5.0 | 0.00 | 0.00 | 0.00 | 96 | 1006.5 |
| 20260903085308 | 71 | 122 | 0.0 | 3.0 | 0.00 | 0.00 | 0.00 | 95 | 1006.3 |
| 20260903084806 | 71 | 143 | 1.0 | 3.0 | 0.00 | 0.00 | 0.00 | 95 | 1006.3 |
| 20260903084300 | 72 | 154 | 0.0 | 3.0 | 0.00 | 0.00 | 0.00 | 95 | 1006.6 |
| 20260903083755 | 72 | 175 | 2.0 | 4.0 | 0.00 | 0.00 | 0.00 | 95 | 1006.4 |
| 20260903083250 | 72 | 140 | 0.0 | 3.0 | 0.00 | 0.00 | 0.00 | 95 | 1006.5 |
| 20260903082749 | 72 | 242 | 2.0 | 5.0 | 0.00 | 0.00 | 0.00 | 95 | 1006.8 |
| 20260903082245 | 72 | 221 | 3.0 | 3.0 | 0.00 | 0.00 | 0.00 | 94 | 1006.6 |
| 20260903081745 | 72 | 162 | 2.0 | 4.0 | 0.00 | 0.00 | 0.00 | 94 | 1006.5 |
| 20260903081241 | 72 | 174 | 1.0 | 4.0 | 0.00 | 0.00 | 0.00 | 94 | 1006.5 |
| 20260903080737 | 72 | 160 | 2.0 | 4.0 | 0.00 | 0.00 | 0.00 | 95 | 1006.5 |
| 20260903080234 | 71 | 158 | 1.0 | 3.0 | 0.00 | 0.00 | 0.00 | 95 | 1006.5 |
| 20260903075734 | 71 | 182 | 2.0 | 3.0 | 0.00 | 0.00 | 0.00 | 95 | 1006.4 |
| 20260903075229 | 71 | 246 | 0.0 | 2.0 | 0.00 | 0.00 | 0.00 | 95 | 1006.4 |
| 20260903074728 | 72 | 113 | 0.0 | 3.0 | 0.00 | 0.00 | 0.00 | 95 | 1006.5 |
| 20260903074223 | 72 | 66 | 1.0 | 3.0 | 0.00 | 0.00 | 0.00 | 95 | 1006.6 |
| 20260903073718 | 72 | 99 | 2.0 | 4.0 | 0.00 | 0.00 | 0.00 | 95 | 1006.5 |
| 20260903073213 | 72 | 159 | 1.0 | 5.0 | 0.00 | 0.00 | 0.00 | 95 | 1006.6 |
| 20260903072709 | 72 | 147 | 0.0 | 5.0 | 0.00 | 0.00 | 0.00 | 95 | 1006.3 |
| 20260903072206 | 72 | 129 | 1.0 | 4.0 | 0.00 | 0.00 | 0.00 | 95 | 1006.6 |
| 20260903071701 | 72 | 95 | 0.0 | 4.0 | 0.00 | 0.00 | 0.00 | 95 | 1006.5 |
| 20260903071157 | 72 | 175 | 2.0 | 3.0 | 0.00 | 0.00 | 0.00 | 95 | 1006.7 |
| 20260903070656 | 72 | 142 | 0.0 | 4.0 | 0.00 | 0.00 | 0.00 | 95 | 1006.8 |
| 20260903070152 | 72 | 163 | 1.0 | 7.0 | 0.00 | 0.00 | 0.00 | 95 | 1006.7 |
| 20260903065647 | 72 | 163 | 2.0 | 3.0 | 0.00 | 0.00 | 0.00 | 94 | 1006.6 |
| 20260903065141 | 73 | 162 | 2.0 | 4.0 | 0.00 | 0.00 | 0.00 | 94 | 1006.7 |
| 20260903064640 | 73 | 193 | 2.0 | 4.0 | 0.00 | 0.00 | 0.00 | 94 | 1007.0 |
| 20260903064136 | 73 | 121 | 1.0 | 4.0 | 0.00 | 0.00 | 0.00 | 94 | 1006.8 |
| 20260903063632 | 73 | 169 | 1.0 | 3.0 | 0.00 | 0.00 | 0.00 | 94 | 1006.9 |
| 20260903063127 | 73 | 132 | 1.0 | 3.0 | 0.00 | 0.00 | 0.00 | 94 | 1007.0 |
| 20260903062622 | 73 | 161 | 1.0 | 3.0 | 0.00 | 0.00 | 0.00 | 94 | 1007.2 |
| 20260903062117 | 73 | 118 | 2.0 | 4.0 | 0.00 | 0.00 | 0.00 | 94 | 1007.0 |
| 20260903061612 | 73 | 196 | 1.0 | 2.0 | 0.00 | 0.00 | 0.00 | 94 | 1007.1 |
| 20260903061112 | 73 | 200 | 2.0 | 3.0 | 0.00 | 0.00 | 0.00 | 94 | 1007.1 |
| 20260903060607 | 73 | 163 | 1.0 | 3.0 | 0.00 | 0.00 | 0.00 | 95 | 1006.9 |
| 20260903055600 | 73 | 177 | 1.0 | 3.0 | 0.00 | 0.00 | 0.00 | 95 | 1007.1 |
| 20260903055058 | 73 | 219 | 2.0 | 3.0 | 0.00 | 0.00 | 0.00 | 95 | 1007.1 |
| 20260903054553 | 73 | 197 | 1.0 | 3.0 | 0.00 | 0.00 | 0.00 | 95 | 1007.2 |
| 20260903054049 | 73 | 180 | 1.0 | 3.0 | 0.00 | 0.00 | 0.00 | 95 | 1007.1 |
| 20260903053544 | 73 | 224 | 0.0 | 3.0 | 0.00 | 0.00 | 0.00 | 95 | 1007.2 |
| 20260903053041 | 73 | 166 | 0.0 | 2.0 | 0.00 | 0.00 | 0.00 | 95 | 1007.1 |
| 20260903052536 | 73 | 196 | 2.0 | 3.0 | 0.00 | 0.00 | 0.00 | 94 | 1007.1 |
| 20260903052032 | 73 | 221 | 2.0 | 3.0 | 0.00 | 0.00 | 0.00 | 94 | 1007.1 |
| 20260903051531 | 73 | 203 | 1.0 | 4.0 | 0.00 | 0.00 | 0.00 | 94 | 1007.3 |
| 20260903051027 | 73 | 198 | 1.0 | 3.0 | 0.00 | 0.00 | 0.00 | 94 | 1007.2 |
| 20260903050526 | 73 | 187 | 2.0 | 3.0 | 0.00 | 0.00 | 0.00 | 94 | 1007.1 |
| 20260903050022 | 73 | 203 | 2.0 | 3.0 | 0.00 | 0.50 | 0.50 | 94 | 1007.4 |
| 20260903045521 | 74 | 199 | 2.0 | 3.0 | 0.00 | 0.50 | 0.50 | 94 | 1007.3 |
| 20260903045018 | 74 | 199 | 3.0 | 4.0 | 0.00 | 0.50 | 0.50 | 94 | 1007.2 |
| 20260903044514 | 74 | 206 | 2.0 | 3.0 | 0.00 | 0.50 | 0.50 | 94 | 1007.1 |
| 20260903044009 | 74 | 171 | 0.0 | 3.0 | 0.00 | 0.50 | 0.50 | 94 | 1007.3 |
| 20260903043505 | 74 | 190 | 1.0 | 3.0 | 0.00 | 0.50 | 0.50 | 93 | 1007.3 |
| 20260903043004 | 74 | 213 | 2.0 | 3.0 | 0.00 | 0.50 | 0.50 | 93 | 1007.2 |
| 20260903042458 | 74 | 203 | 1.0 | 3.0 | 0.00 | 0.50 | 0.50 | 93 | 1007.3 |
| 20260903041954 | 74 | 215 | 3.0 | 4.0 | 0.00 | 0.50 | 0.50 | 93 | 1007.3 |
| 20260903041451 | 74 | 187 | 0.0 | 3.0 | 0.00 | 0.50 | 0.50 | 92 | 1007.4 |
| 20260903040946 | 75 | 188 | 2.0 | 3.0 | 0.00 | 0.50 | 0.50 | 92 | 1007.0 |
| 20260903040444 | 75 | 191 | 2.0 | 4.0 | 0.00 | 0.50 | 0.50 | 92 | 1007.6 |
| 20260903035941 | 75 | 186 | 3.0 | 4.0 | 0.00 | 0.50 | 0.50 | 92 | 1007.4 |
| 20260903035437 | 75 | 198 | 2.0 | 3.0 | 0.00 | 0.50 | 0.50 | 92 | 1007.4 |
| 20260903034932 | 75 | 197 | 2.0 | 3.0 | 0.00 | 0.50 | 0.50 | 92 | 1007.4 |
| 20260903034432 | 75 | 197 | 2.0 | 3.0 | 0.00 | 0.50 | 0.50 | 92 | 1007.6 |
| 20260903033927 | 75 | 190 | 2.0 | 3.0 | 0.00 | 0.50 | 0.50 | 92 | 1007.6 |
| 20260903033422 | 75 | 205 | 2.0 | 3.0 | 0.00 | 0.50 | 0.50 | 91 | 1007.7 |
| 20260903032917 | 76 | 172 | 2.0 | 3.0 | 0.00 | 0.50 | 0.50 | 91 | 1007.5 |
| 20260903032413 | 76 | 199 | 3.0 | 3.0 | 0.00 | 0.50 | 0.50 | 91 | 1007.5 |
| 20260903031913 | 76 | 205 | 2.0 | 3.0 | 0.00 | 0.50 | 0.50 | 91 | 1007.6 |
| 20260903031413 | 76 | 202 | 0.0 | 2.0 | 0.00 | 0.50 | 0.50 | 91 | 1007.5 |
| 20260903030908 | 76 | 196 | 2.0 | 3.0 | 0.00 | 0.50 | 0.50 | 91 | 1007.6 |
| 20260903030404 | 76 | 210 | 2.0 | 2.0 | 0.00 | 0.50 | 0.50 | 91 | 1007.6 |
| 20260903025859 | 76 | 177 | 2.0 | 3.0 | 0.00 | 0.50 | 0.50 | 91 | 1007.4 |
| 20260903025355 | 76 | 188 | 1.0 | 2.0 | 0.00 | 0.50 | 0.50 | 91 | 1007.6 |
| 20260903024850 | 76 | 226 | 0.0 | 2.0 | 0.00 | 0.50 | 0.50 | 90 | 1007.6 |
| 20260903024350 | 76 | 191 | 2.0 | 3.0 | 0.00 | 0.50 | 0.50 | 90 | 1007.8 |
| 20260903023845 | 76 | 198 | 2.0 | 3.0 | 0.00 | 0.50 | 0.50 | 90 | 1007.7 |
| 20260903023341 | 77 | 162 | 0.0 | 2.0 | 0.00 | 0.50 | 0.50 | 90 | 1007.5 |
| 20260903022836 | 77 | 203 | 2.0 | 4.0 | 0.00 | 0.50 | 0.50 | 89 | 1007.7 |
| 20260903022335 | 77 | 208 | 2.0 | 4.0 | 0.00 | 0.50 | 0.50 | 90 | 1007.6 |
| 20260903021834 | 77 | 189 | 2.0 | 3.0 | 0.00 | 0.50 | 0.50 | 89 | 1007.3 |
| 20260903021330 | 77 | 214 | 2.0 | 3.0 | 0.00 | 0.50 | 0.50 | 89 | 1007.3 |
| 20260903020829 | 78 | 182 | 0.0 | 2.0 | 0.00 | 0.50 | 0.50 | 88 | 1007.3 |
| 20260903020324 | 78 | 191 | 1.0 | 2.0 | 0.00 | 0.50 | 0.50 | 88 | 1007.5 |
| 20260903015819 | 78 | 233 | 1.0 | 3.0 | 0.00 | 0.50 | 0.50 | 87 | 1007.4 |
| 20260903015315 | 78 | 188 | 0.0 | 3.0 | 0.00 | 0.50 | 0.50 | 87 | 1007.3 |
| 20260903014810 | 78 | 209 | 1.0 | 2.0 | 0.00 | 0.50 | 0.50 | 87 | 1007.3 |
| 20260903014309 | 78 | 173 | 0.0 | 1.0 | 0.00 | 0.50 | 0.50 | 86 | 1007.2 |
| 20260903013805 | 79 | 209 | 0.0 | 3.0 | 0.00 | 0.50 | 0.50 | 85 | 1007.1 |
| 20260903013304 | 79 | 187 | 1.0 | 2.0 | 0.00 | 0.50 | 0.50 | 85 | 1007.2 |
| 20260903012803 | 79 | 209 | 0.0 | 2.0 | 0.00 | 0.50 | 0.50 | 86 | 1007.2 |
| 20260903012257 | 79 | 204 | 1.0 | 2.0 | 0.00 | 0.50 | 0.50 | 85 | 1007.0 |
| 20260903011757 | 80 | 190 | 1.0 | 3.0 | 0.00 | 0.50 | 0.50 | 84 | 1007.0 |
| 20260903011256 | 80 | 200 | 0.0 | 3.0 | 0.00 | 0.50 | 0.50 | 83 | 1006.9 |
| 20260903010752 | 80 | 191 | 0.0 | 2.0 | 0.00 | 0.50 | 0.50 | 82 | 1006.9 |
| 20260903010247 | 81 | 193 | 2.0 | 3.0 | 0.00 | 0.50 | 0.50 | 80 | 1006.9 |
| 20260903005746 | 81 | 207 | 1.0 | 3.0 | 0.00 | 0.50 | 0.50 | 79 | 1006.7 |
| 20260903005241 | 81 | 210 | 2.0 | 3.0 | 0.00 | 0.50 | 0.50 | 79 | 1006.8 |
| 20260903004736 | 82 | 215 | 1.0 | 2.0 | 0.00 | 0.50 | 0.50 | 79 | 1006.9 |
| 20260903004232 | 82 | 194 | 0.0 | 2.0 | 0.00 | 0.50 | 0.50 | 79 | 1006.8 |
| 20260903003727 | 82 | 221 | 2.0 | 3.0 | 0.00 | 0.50 | 0.50 | 78 | 1006.8 |
| 20260903003222 | 82 | 197 | 2.0 | 3.0 | 0.00 | 0.50 | 0.50 | 78 | 1006.8 |
| 20260903002711 | 83 | 201 | 1.0 | 3.0 | 0.00 | 0.50 | 0.50 | 77 | 1006.7 |
| 20260903002205 | 83 | 203 | 2.0 | 3.0 | 0.00 | 0.50 | 0.50 | 77 | 1006.7 |
| 20260903001700 | 83 | 219 | 2.0 | 4.0 | 0.00 | 0.50 | 0.50 | 76 | 1006.6 |
| 20260903001154 | 83 | 219 | 1.0 | 3.0 | 0.00 | 0.50 | 0.50 | 76 | 1006.6 |
| 20260903000650 | 84 | 215 | 0.0 | 3.0 | 0.00 | 0.50 | 0.50 | 76 | 1006.7 |
| 20260903000149 | 84 | 218 | 2.0 | 5.0 | 0.00 | 0.50 | 0.50 | 75 | 1006.7 |
| 20260902235648 | 84 | 192 | 4.0 | 5.0 | 0.00 | 0.50 | 0.50 | 74 | 1006.7 |
| 20260902235144 | 84 | 201 | 5.0 | 5.0 | 0.00 | 0.50 | 0.50 | 74 | 1006.9 |
| 20260902234637 | 84 | 194 | 3.0 | 5.0 | 0.00 | 0.50 | 0.50 | 73 | 1006.8 |
| 20260902234136 | 84 | 195 | 2.0 | 6.0 | 0.00 | 0.50 | 0.50 | 73 | 1006.9 |
| 20260902233631 | 85 | 213 | 3.0 | 6.0 | 0.00 | 0.50 | 0.50 | 72 | 1006.7 |